Date String (YYYY-MM-DD hh:mm:ss) UTC,Instrument flags,absolute air pressure of the measurement (hPa),sample flow rate (lpm),inlet stack bypass flow (lpm),air temperature of the measurement (°C),ambient temperature measured by the external sensor (°C),aerosol sample conditioner tube jacket temperature (°C),OPC LED temperature (°C),internal box temperature (°C),relative humidity of the measurement (%),span deviation,mass concentration of particles derived from Lorenz-Mie calculation of OPC scattering (μg/m³),mass concentration of particles derived from Lorenz-Mie calculation of OPC scattering (μg/m³),mass concentration of particles derived from Lorenz-Mie calculation of OPC scattering (μg/m³)
DateTimeUTC,F1_M11,P_M11,Q1_M11,Q2_M11,T1_M11,T2_M11,T3_M11,T4_M11,T5_M11,U1_M11,ZSPAN_M11,X2_M11,X0_M11,X1_M11
2023-11-28 15:00:00,SystemResetWarning,0832.7,4.99,000.00,018.8,018.0,000.0,027.1,020.0,10.0,0000.0,0002.15,0003.91,0001.69
2023-11-28 15:01:00,SystemResetWarning,0832.8,5.00,000.00,018.8,018.0,000.0,027.1,020.0,10.4,0000.0,0002.27,0004.05,0001.80
2023-11-28 15:02:00,SystemResetWarning,0832.7,5.00,000.00,018.8,018.0,000.0,027.1,020.0,10.1,0000.0,0002.30,0004.11,0001.84
2023-11-28 15:03:00,SystemResetWarning,0832.7,5.01,000.00,018.8,018.0,000.0,027.1,020.0,10.2,0000.0,0002.34,0004.06,0001.90
2023-11-28 15:04:00,SystemResetWarning,0832.7,5.01,000.00,018.8,018.0,000.0,027.1,020.0,10.6,0000.0,0002.42,0004.15,0001.97
2023-11-28 15:05:00,SystemResetWarning,0832.7,5.00,000.00,018.8,018.0,000.0,027.1,020.0,10.1,0000.0,0002.48,0004.21,0002.05
2023-11-28 15:06:00,SystemResetWarning,0832.7,4.99,000.00,018.8,018.0,000.0,027.1,020.0,10.5,0000.0,0002.56,0004.29,0002.15
2023-11-28 15:07:00,SystemResetWarning,0832.6,4.99,000.00,018.8,018.0,000.0,027.1,020.0,10.2,0000.0,0002.65,0004.41,0002.22
2023-11-28 15:08:00,SystemResetWarning,0832.7,5.00,000.00,018.8,018.0,000.0,027.1,020.0,9.8,0000.0,0002.72,0004.55,0002.26
2023-11-28 15:09:00,SystemResetWarning,0832.7,5.00,000.00,018.8,018.0,000.0,027.1,020.0,10.1,0000.0,0002.75,0004.56,0002.29
2023-11-28 15:10:00,SystemResetWarning,0832.7,5.00,000.00,018.8,018.1,000.0,027.1,020.0,10.0,0000.0,0002.82,0004.65,0002.30
2023-11-28 15:11:00,SystemResetWarning,0832.7,5.01,000.00,018.8,018.1,000.0,027.1,020.0,9.8,0000.0,0002.83,0003.98,0002.33
2023-11-28 15:12:00,SystemResetWarning,0832.8,5.00,000.00,018.8,018.1,000.0,027.1,020.0,9.8,0000.0,0002.80,0005.52,0002.33
2023-11-28 15:13:00,SystemResetWarning,0833.0,5.00,000.00,018.8,018.1,000.0,027.1,020.0,11.0,0000.0,0002.82,0006.43,0002.34
2023-11-28 15:14:00,SystemResetWarning,0832.8,4.99,000.00,018.8,018.1,000.0,027.1,020.0,10.6,0000.0,0002.86,0006.74,0002.35
2023-11-28 15:15:00,SystemResetWarning,0832.8,5.00,000.00,018.8,018.1,000.0,027.1,020.0,9.5,0000.0,0002.87,0007.84,0002.34
2023-11-28 15:16:00,SystemResetWarning,0832.8,4.99,000.00,018.8,018.1,000.0,027.1,020.0,9.3,0000.0,0002.95,0007.92,0002.40
2023-11-28 15:17:00,SystemResetWarning,0832.9,5.00,000.00,018.8,018.2,000.0,027.1,020.0,9.7,0000.0,0003.01,0007.97,0002.43
2023-11-28 15:18:00,SystemResetWarning,0832.8,5.02,000.00,018.9,018.2,000.0,027.1,020.1,10.1,0000.0,0003.03,0007.99,0002.43
2023-11-28 15:19:00,SystemResetWarning,0833.0,5.00,000.00,018.9,018.2,000.0,027.1,020.1,10.3,0000.0,0003.00,0008.02,0002.41
2023-11-28 15:20:00,SystemResetWarning,0833.1,5.00,000.00,018.9,018.2,000.0,027.1,020.1,10.4,0000.0,0003.01,0008.23,0002.39
2023-11-28 15:21:00,SystemResetWarning,0833.0,5.00,000.00,018.9,018.3,000.0,027.1,020.1,10.7,0000.0,0002.91,0008.13,0002.35
2023-11-28 15:22:00,SystemResetWarning,0833.0,5.00,000.00,018.9,018.3,000.0,027.1,020.2,11.1,0000.0,0002.81,0008.46,0002.30
2023-11-28 15:23:00,SystemResetWarning,0832.9,5.00,000.00,018.9,018.3,000.0,027.1,020.2,11.4,0000.0,0002.77,0008.07,0002.27
2023-11-28 15:24:00,SystemResetWarning,0833.0,4.99,000.00,018.9,018.3,000.0,027.2,020.2,11.3,0000.0,0002.77,0007.61,0002.23
2023-11-28 15:25:00,SystemResetWarning,0833.0,5.00,000.00,019.0,018.3,000.0,027.2,020.2,11.4,0000.0,0002.75,0007.56,0002.21
2023-11-28 15:26:00,SystemResetWarning,0832.9,5.00,000.00,019.0,018.4,000.0,027.2,020.2,11.5,0000.0,0002.72,0006.11,0002.18
2023-11-28 15:27:00,SystemResetWarning,0833.1,5.00,000.00,019.0,018.4,000.0,027.2,020.2,10.9,0000.0,0002.66,0005.99,0002.13
2023-11-28 15:28:00,SystemResetWarning,0832.9,5.00,000.00,019.0,018.4,000.0,027.2,020.2,10.3,0000.0,0002.60,0005.92,0002.09
2023-11-28 15:29:00,SystemResetWarning,0832.9,5.00,000.00,019.0,018.4,000.0,027.2,020.2,10.8,0000.0,0002.60,0005.96,0002.07
2023-11-28 15:30:00,SystemResetWarning,0833.0,5.00,000.00,019.0,018.4,000.0,027.2,020.3,10.7,0000.0,0002.61,0005.90,0002.11
2023-11-28 15:31:00,SystemResetWarning,0833.0,5.00,000.00,019.0,018.5,000.0,027.2,020.3,10.7,0000.0,0002.64,0005.64,0002.14
2023-11-28 15:32:00,SystemResetWarning,0832.9,5.00,000.00,019.1,018.5,000.0,027.2,020.3,10.4,0000.0,0002.64,0005.58,0002.17
2023-11-28 15:33:00,SystemResetWarning,0832.8,5.00,000.00,019.1,018.5,000.0,027.2,020.3,10.7,0000.0,0002.70,0005.45,0002.23
2023-11-28 15:34:00,SystemResetWarning,0833.0,5.00,000.00,019.1,018.5,000.0,027.2,020.4,10.8,0000.0,0002.78,0003.86,0002.31
2023-11-28 15:35:00,SystemResetWarning,0833.0,5.01,000.00,019.1,018.5,000.0,027.3,020.4,10.6,0000.0,0002.83,0003.99,0002.35
2023-11-28 15:36:00,SystemResetWarning,0832.9,5.00,000.00,019.1,018.6,000.0,027.3,020.4,11.0,0000.0,0002.81,0004.10,0002.38
2023-11-28 15:37:00,SystemResetWarning,0832.9,5.00,000.00,019.1,018.6,000.0,027.3,020.4,11.0,0000.0,0002.85,0004.11,0002.43
2023-11-28 15:38:00,SystemResetWarning,0833.0,4.99,000.00,019.2,018.6,000.0,027.3,020.5,10.1,0000.0,0002.87,0004.12,0002.46
2023-11-28 15:39:00,SystemResetWarning,0833.0,5.00,000.00,019.2,018.6,000.0,027.3,020.5,10.3,0000.0,0002.89,0004.14,0002.47
2023-11-28 15:40:00,SystemResetWarning,0833.5,5.00,000.00,019.2,018.6,000.0,027.3,020.5,9.7,0000.0,0002.91,0004.12,0002.49
2023-11-28 15:41:00,SystemResetWarning,0833.1,5.00,000.00,019.2,018.7,000.0,027.3,020.5,10.3,0000.0,0002.95,0004.46,0002.49
2023-11-28 15:42:00,SystemResetWarning,0833.0,5.00,000.00,019.2,018.7,000.0,027.3,020.5,11.0,0000.0,0002.93,0004.83,0002.48
2023-11-28 15:43:00,SystemResetWarning,0833.0,5.00,000.00,019.2,018.7,000.0,027.4,020.5,11.3,0000.0,0002.97,0004.93,0002.52
2023-11-28 15:44:00,SystemResetWarning,0833.0,5.00,000.00,019.3,018.7,000.0,027.4,020.5,10.9,0000.0,0002.95,0004.91,0002.52
2023-11-28 15:45:00,SystemResetWarning,0833.0,5.00,000.00,019.3,018.7,000.0,027.4,020.6,10.1,0000.0,0002.89,0004.83,0002.48
2023-11-28 15:46:00,SystemResetWarning,0833.0,5.01,000.00,019.3,018.7,000.0,027.4,020.6,10.1,0000.0,0002.87,0005.13,0002.46
2023-11-28 15:47:00,SystemResetWarning,0833.0,5.00,000.00,019.3,018.8,000.0,027.4,020.6,10.6,0000.0,0002.88,0005.05,0002.46
2023-11-28 15:48:00,SystemResetWarning,0833.2,5.00,000.00,019.3,018.8,000.0,027.4,020.6,11.1,0000.0,0002.86,0004.98,0002.45
2023-11-28 15:49:00,SystemResetWarning,0833.1,5.00,000.00,019.3,018.8,000.0,027.5,020.6,11.6,0000.0,0002.87,0004.97,0002.45
2023-11-28 15:50:00,SystemResetWarning,0833.2,5.00,000.00,019.3,018.8,000.0,027.5,020.6,11.3,0000.0,0002.87,0004.99,0002.44
2023-11-28 15:51:00,SystemResetWarning,0833.1,5.00,000.00,019.4,018.8,000.0,027.5,020.6,11.3,0000.0,0002.88,0005.07,0002.42
2023-11-28 15:52:00,SystemResetWarning,0833.2,5.00,000.00,019.4,018.8,000.0,027.5,020.7,11.2,0000.0,0002.83,0004.94,0002.39
2023-11-28 15:53:00,SystemResetWarning,0833.2,5.00,000.00,019.4,018.8,000.0,027.5,020.7,10.7,0000.0,0002.84,0004.44,0002.37
2023-11-28 15:54:00,SystemResetWarning,0833.2,5.00,000.00,019.4,018.9,000.0,027.5,020.7,10.9,0000.0,0002.85,0004.54,0002.33
2023-11-28 15:55:00,SystemResetWarning,0833.2,5.00,000.00,019.4,018.9,000.0,027.5,020.7,10.6,0000.0,0002.86,0004.60,0002.31
2023-11-28 15:56:00,SystemResetWarning,0833.2,5.00,000.00,019.4,018.9,000.0,027.6,020.7,10.7,0000.0,0002.86,0004.62,0002.30
2023-11-28 15:57:00,SystemResetWarning,0833.2,5.00,000.00,019.5,018.9,000.0,027.6,020.8,10.8,0000.0,0002.90,0004.88,0002.32
2023-11-28 15:58:00,SystemResetWarning,0833.2,5.00,000.00,019.5,018.9,000.0,027.6,020.8,10.8,0000.0,0002.85,0004.66,0002.30
2023-11-28 15:59:00,SystemResetWarning,0833.2,5.00,000.00,019.5,019.0,000.0,027.6,020.8,11.2,0000.0,0002.80,0004.59,0002.27
